FW8343 Weather Reports


Display with metric or nautical units.
time (UTC)temp
F
wind
direction
speed
MPH
gust
MPH
rain 1hr
in
rain 24hr
in
rain mn
in
humidity
%
barometer
mb
20260510164011 46 355 2.0 6.0 0.00 0.00 0.00 56 1020.1
20260510163515 46 288 2.0 10.0 0.00 0.00 0.00 56 1019.9
20260510163032 45 307 3.0 10.0 0.00 0.00 0.00 57 1019.9
20260510162512 46 312 3.0 10.0 0.00 0.00 0.00 57 1019.9
20260510162011 46 288 3.0 6.0 0.00 0.00 0.00 55 1019.8
20260510161531 47 304 2.0 9.0 0.00 0.00 0.00 56 1019.6
20260510161011 46 302 3.0 9.0 0.00 0.00 0.00 56 1019.7
20260510160510 46 313 3.0 9.0 0.00 0.00 0.00 57 1019.6
20260510160032 45 296 2.0 9.0 0.00 0.00 0.00 59 1019.6
20260510155511 45 237 4.0 9.0 0.00 0.00 0.00 57 1019.5
20260510155012 45 261 2.0 9.0 0.00 0.00 0.00 57 1019.4
20260510154530 45 28 2.0 8.0 0.00 0.00 0.00 57 1019.4
20260510154011 45 257 2.0 8.0 0.00 0.00 0.00 57 1019.4
20260510153513 45 268 3.0 8.0 0.00 0.00 0.00 56 1019.3
20260510153040 46 279 2.0 8.0 0.00 0.00 0.00 57 1019.2
20260510152512 46 312 2.0 7.0 0.00 0.00 0.00 54 1019.1
20260510152014 46 304 2.0 10.0 0.00 0.00 0.00 60 1019.2
20260510151536 44 0 1.0 10.0 0.00 0.00 0.00 62 1019.2
20260510151013 44 345 2.0 10.0 0.00 0.00 0.00 59 1019.2
20260510150515 45 248 2.0 7.0 0.00 0.00 0.00 57 1019.0
20260510150031 45 256 3.0 7.0 0.00 0.00 0.00 57 1018.9
20260510145514 45 336 2.0 7.0 0.00 0.00 0.00 58 1018.8
20260510145012 45 304 3.0 7.0 0.00 0.00 0.00 59 1018.8
20260510144532 44 297 3.0 9.0 0.00 0.00 0.00 61 1018.9
20260510144012 44 259 3.0 10.0 0.00 0.00 0.00 56 1018.8
20260510143517 44 270 1.0 10.0 0.00 0.00 0.00 60 1018.8
20260510143030 44 321 3.0 10.0 0.00 0.00 0.00 57 1018.8
20260510142515 44 321 5.0 10.0 0.00 0.00 0.00 56 1018.7
20260510142017 44 355 3.0 10.0 0.00 0.00 0.00 57 1018.6
20260510141534 44 308 3.0 10.0 0.00 0.00 0.00 56 1018.6
20260510141009 44 307 3.0 11.0 0.00 0.00 0.00 57 1018.5
20260510140513 44 302 3.0 11.0 0.00 0.00 0.00 58 1018.5
20260510140029 44 0 2.0 8.0 0.00 0.00 0.00 58 1018.4
20260510135511 44 287 4.0 9.0 0.00 0.00 0.00 59 1018.5
20260510135015 44 317 2.0 9.0 0.00 0.00 0.00 61 1018.4
20260510134531 43 277 3.0 9.0 0.00 0.00 0.00 59 1018.3
20260510134010 43 355 2.0 8.0 0.00 0.00 0.00 60 1018.3
20260510133514 42 279 3.0 8.0 0.00 0.00 0.00 62 1018.3
20260510133030 42 355 1.0 6.0 0.00 0.00 0.00 68 1018.3
20260510132515 41 269 1.0 9.0 0.00 0.00 0.00 69 1018.3
20260510132017 41 243 2.0 9.0 0.00 0.00 0.00 71 1018.3
20260510131530 41 275 2.0 8.0 0.00 0.00 0.00 71 1018.3
20260510131013 41 279 2.0 8.0 0.00 0.00 0.00 73 1018.3
20260510130515 40 331 2.0 10.0 0.00 0.00 0.00 72 1018.4
20260510130044 40 306 3.0 10.0 0.00 0.00 0.00 73 1018.3
20260510125511 40 264 2.0 9.0 0.00 0.00 0.00 75 1018.2
20260510125017 39 298 2.0 9.0 0.00 0.00 0.00 75 1018.2
20260510124531 39 311 2.0 9.0 0.00 0.00 0.00 75 1018.0
20260510124009 39 0 1.0 8.0 0.00 0.00 0.00 76 1017.9
20260510123514 39 252 2.0 10.0 0.00 0.00 0.00 76 1017.9
20260510123030 39 317 3.0 10.0 0.00 0.00 0.00 75 1017.9
20260510122510 38 326 1.0 8.0 0.00 0.00 0.00 76 1017.8
20260510122016 38 235 2.0 11.0 0.00 0.00 0.00 76 1017.8
20260510121535 38 294 2.0 11.0 0.00 0.00 0.00 76 1017.7
20260510121013 38 295 2.0 8.0 0.00 0.00 0.00 75 1017.7
20260510120514 38 309 3.0 8.0 0.00 0.00 0.00 76 1017.6
20260510120033 38 245 2.0 7.0 0.00 0.00 0.00 76 1017.6
20260510115510 37 267 2.0 5.0 0.00 0.00 0.00 76 1017.6
20260510115014 37 262 0.0 6.0 0.00 0.00 0.00 76 1017.4
20260510114532 37 259 1.0 6.0 0.00 0.00 0.00 77 1017.4
20260510114013 37 0 1.0 6.0 0.00 0.00 0.00 76 1017.3
20260510113512 36 284 1.0 7.0 0.00 0.00 0.00 77 1017.2
20260510113030 36 289 1.0 7.0 0.00 0.00 0.00 77 1017.1
20260510112511 36 260 1.0 5.0 0.00 0.00 0.00 77 1017.0
20260510112010 36 265 1.0 5.0 0.00 0.00 0.00 77 1016.9
20260510111530 35 264 1.0 4.0 0.00 0.00 0.00 77 1016.9
20260510111010 35 0 1.0 6.0 0.00 0.00 0.00 76 1016.8
20260510110514 35 0 0.0 6.0 0.00 0.00 0.00 76 1016.7
20260510110040 35 0 0.0 4.0 0.00 0.00 0.00 76 1016.8
20260510105510 35 278 1.0 6.0 0.00 0.00 0.00 76 1016.7
20260510105011 35 0 1.0 6.0 0.00 0.00 0.00 76 1016.7
20260510104530 35 331 0.0 4.0 0.00 0.00 0.00 75 1016.6
20260510104016 35 331 1.0 4.0 0.00 0.00 0.00 75 1016.6
20260510103513 35 331 1.0 4.0 0.00 0.00 0.00 75 1016.4
20260510103032 35 331 1.0 3.0 0.00 0.00 0.00 75 1016.3
20260510102513 35 331 0.0 3.0 0.00 0.00 0.00 74 1016.3
20260510102012 35 0 0.0 2.0 0.00 0.00 0.00 74 1016.1
20260510101534 35 331 0.0 3.0 0.00 0.00 0.00 74 1016.1
20260510101009 36 0 0.0 3.0 0.00 0.00 0.00 73 1016.0
20260510100515 36 0 0.0 2.0 0.00 0.00 0.00 73 1016.0
20260510100031 36 0 1.0 3.0 0.00 0.00 0.00 73 1015.9
20260510095516 35 331 0.0 3.0 0.00 0.00 0.00 73 1015.9
20260510095013 36 331 1.0 3.0 0.00 0.00 0.00 73 1015.9
20260510094531 36 331 0.0 2.0 0.00 0.00 0.00 72 1015.7
20260510094012 36 0 0.0 2.0 0.00 0.00 0.00 72 1015.8
20260510093511 36 0 0.0 3.0 0.00 0.00 0.00 71 1015.6
20260510093032 36 331 1.0 3.0 0.00 0.00 0.00 71 1015.7
20260510092511 36 331 1.0 3.0 0.00 0.00 0.00 70 1015.6
20260510092015 36 331 0.0 2.0 0.00 0.00 0.00 70 1015.6
20260510091536 37 0 0.0 2.0 0.00 0.00 0.00 70 1015.5
20260510091011 37 0 0.0 1.0 0.00 0.00 0.00 70 1015.5
20260510090514 37 0 0.0 2.0 0.00 0.00 0.00 70 1015.5
20260510090031 37 0 0.0 2.0 0.00 0.00 0.00 70 1015.4
20260510085511 37 331 0.0 1.0 0.00 0.00 0.00 69 1015.4
20260510085013 37 0 0.0 0.0 0.00 0.00 0.00 69 1015.4
20260510084535 37 0 0.0 0.0 0.00 0.00 0.00 69 1015.3
20260510084017 37 0 0.0 0.0 0.00 0.00 0.00 69 1015.3
20260510083512 37 0 0.0 0.0 0.00 0.00 0.00 68 1015.2
20260510083028 37 0 0.0 0.0 0.00 0.00 0.00 67 1015.1
20260510082512 37 0 0.0 0.0 0.00 0.00 0.00 67 1015.1
20260510082012 37 0 0.0 0.0 0.00 0.00 0.00 66 1015.0
20260510081534 38 0 0.0 1.0 0.00 0.00 0.00 66 1015.0
20260510081009 38 0 0.0 1.0 0.00 0.00 0.00 66 1014.9
20260510080512 38 0 0.0 0.0 0.00 0.00 0.00 65 1014.8
20260510080031 39 0 0.0 0.0 0.00 0.00 0.00 66 1014.8
20260510075513 39 0 0.0 1.0 0.00 0.00 0.00 66 1014.8
20260510075012 39 0 0.0 1.0 0.00 0.00 0.00 66 1014.8
20260510074530 39 0 0.0 1.0 0.00 0.00 0.00 65 1014.8
20260510074016 39 0 0.0 0.0 0.00 0.00 0.00 65 1014.7
20260510073516 39 0 0.0 2.0 0.00 0.00 0.00 65 1014.7
20260510073032 39 0 0.0 2.0 0.00 0.00 0.00 66 1014.7
20260510072510 39 331 0.0 2.0 0.00 0.00 0.00 65 1014.7
20260510072017 39 0 0.0 2.0 0.00 0.00 0.00 66 1014.8
20260510071531 39 331 0.0 2.0 0.00 0.00 0.00 66 1014.7
20260510071010 38 0 0.0 3.0 0.00 0.00 0.00 67 1014.6
20260510070512 38 0 0.0 3.0 0.00 0.00 0.00 68 1014.7
20260510070036 38 0 0.0 3.0 0.00 0.00 0.00 68 1014.6
20260510065511 38 0 0.0 1.0 0.00 0.00 0.00 69 1014.7
20260510065014 38 0 0.0 1.0 0.00 0.00 0.00 68 1014.6
20260510064535 38 0 0.0 0.0 0.00 0.00 0.00 68 1014.5
20260510064010 38 0 0.0 0.0 0.00 0.00 0.00 68 1014.5
20260510063516 37 0 0.0 0.0 0.00 0.00 0.00 68 1014.6
20260510063034 37 0 0.0 0.0 0.00 0.00 0.00 69 1014.6
20260510062511 37 0 0.0 0.0 0.00 0.00 0.00 69 1014.7
20260510062014 36 0 0.0 0.0 0.00 0.00 0.00 69 1014.6
20260510061533 36 0 0.0 0.0 0.00 0.00 0.00 69 1014.6
20260510061009 36 0 0.0 0.0 0.00 0.00 0.00 70 1014.5
20260510060516 36 0 0.0 0.0 0.00 0.00 0.00 73 1014.5
20260510060032 36 0 0.0 0.0 0.00 0.00 0.00 70 1014.5
20260510055510 36 0 0.0 0.0 0.00 0.00 0.00 69 1014.5
20260510055013 36 0 0.0 0.0 0.00 0.00 0.00 71 1014.5
20260510054532 36 0 0.0 0.0 0.00 0.00 0.00 72 1014.5
20260510054016 37 0 0.0 0.0 0.00 0.00 0.00 72 1014.4
20260510053511 37 0 0.0 0.0 0.00 0.00 0.00 67 1014.4
20260510053034 37 0 0.0 0.0 0.00 0.00 0.00 66 1014.4
20260510052511 37 0 0.0 0.0 0.00 0.00 0.00 66 1014.4
20260510052017 38 0 0.0 0.0 0.00 0.00 0.00 64 1014.3
20260510051530 38 0 0.0 0.0 0.00 0.00 0.00 64 1014.4
20260510051011 38 0 0.0 0.0 0.00 0.00 0.00 64 1014.3
20260510050510 38 0 0.0 0.0 0.00 0.00 0.00 64 1014.4
20260510050033 38 0 0.0 0.0 0.00 0.00 0.00 63 1014.4
20260510045519 38 0 0.0 0.0 0.00 0.00 0.00 64 1014.4
20260510045013 38 0 0.0 0.0 0.00 0.00 0.00 64 1014.4
20260510044547 38 0 0.0 0.0 0.00 0.00 0.00 64 1014.4
20260510044011 38 0 0.0 0.0 0.00 0.00 0.00 64 1014.4
20260510043513 38 0 0.0 0.0 0.00 0.00 0.00 64 1014.4
20260510043030 38 0 0.0 0.0 0.00 0.00 0.00 64 1014.3
20260510042513 38 0 0.0 0.0 0.00 0.00 0.00 65 1014.3
20260510042015 38 0 0.0 0.0 0.00 0.00 0.00 64 1014.3
20260510041529 39 0 0.0 0.0 0.00 0.00 0.00 63 1014.3
20260510041011 39 0 0.0 0.0 0.00 0.00 0.00 63 1014.3
20260510040509 39 0 0.0 0.0 0.00 0.00 0.00 63 1014.3
20260510040032 39 0 0.0 0.0 0.00 0.00 0.00 62 1014.2
20260510035510 40 0 0.0 0.0 0.00 0.00 0.00 60 1014.2
20260510035011 40 0 0.0 0.0 0.00 0.00 0.00 60 1014.2
20260510034532 40 0 0.0 0.0 0.00 0.00 0.00 61 1014.1
20260510034011 40 0 0.0 0.0 0.00 0.00 0.00 59 1014.0
20260510033515 41 0 0.0 0.0 0.00 0.00 0.00 58 1014.0
20260510033030 41 0 0.0 0.0 0.00 0.00 0.00 58 1013.9
20260510032510 41 0 0.0 0.0 0.00 0.00 0.00 59 1014.0
20260510032017 41 0 0.0 0.0 0.00 0.00 0.00 58 1013.9
20260510031530 42 0 0.0 0.0 0.00 0.00 0.00 57 1013.9
20260510031011 42 0 0.0 0.0 0.00 0.00 0.00 57 1013.9
20260510030513 42 0 0.0 0.0 0.00 0.00 0.00 57 1013.8
20260510030030 43 0 0.0 0.0 0.00 0.00 0.00 56 1013.8
20260510025511 43 0 0.0 0.0 0.00 0.00 0.00 54 1013.8
20260510025014 43 0 0.0 0.0 0.00 0.00 0.00 54 1013.7
20260510024532 43 0 0.0 1.0 0.00 0.00 0.00 55 1013.6
20260510024012 43 0 0.0 1.0 0.00 0.00 0.00 55 1013.6
20260510023517 44 0 0.0 1.0 0.00 0.00 0.00 55 1013.5
20260510023032 44 0 0.0 3.0 0.00 0.00 0.00 54 1013.4
20260510022515 44 0 0.0 3.0 0.00 0.00 0.00 55 1013.4
20260510022018 44 0 0.0 3.0 0.00 0.00 0.00 53 1013.4
20260510021532 44 0 0.0 4.0 0.00 0.00 0.00 53 1013.3
20260510021011 44 0 1.0 4.0 0.00 0.00 0.00 52 1013.2
20260510020515 44 0 0.0 2.0 0.00 0.00 0.00 51 1013.0
20260510020032 45 0 0.0 3.0 0.00 0.00 0.00 51 1012.9
20260510015515 45 313 0.0 4.0 0.00 0.00 0.00 51 1012.8
20260510015010 45 0 0.0 4.0 0.00 0.00 0.00 51 1012.8
20260510014529 45 0 1.0 5.0 0.00 0.00 0.00 49 1012.7
20260510014010 46 349 1.0 5.0 0.00 0.00 0.00 50 1012.6
20260510013512 46 0 0.0 9.0 0.00 0.00 0.00 49 1012.4
20260510013029 46 302 2.0 9.0 0.00 0.00 0.00 48 1012.3
20260510012511 46 5 1.0 5.0 0.00 0.00 0.00 48 1012.1
20260510012015 46 292 1.0 8.0 0.00 0.00 0.00 48 1011.9
20260510011528 47 307 1.0 8.0 0.00 0.00 0.00 47 1011.9
20260510011011 47 300 2.0 8.0 0.00 0.00 0.00 46 1011.8
20260510010510 48 0 2.0 8.0 0.00 0.00 0.00 46 1011.7
20260510010032 48 307 2.0 8.0 0.00 0.00 0.00 44 1011.6
20260510005512 48 317 2.0 6.0 0.00 0.00 0.00 44 1011.5
20260510005018 49 288 1.0 6.0 0.00 0.00 0.00 44 1011.3
20260510004532 49 325 1.0 9.0 0.00 0.00 0.00 43 1011.3
20260510004011 49 360 2.0 11.0 0.00 0.00 0.00 42 1011.2
20260510003515 50 312 1.0 11.0 0.00 0.00 0.00 43 1011.2
20260510003033 50 284 5.0 11.0 0.00 0.00 0.00 41 1011.2
20260510002510 50 321 2.0 11.0 0.00 0.00 0.00 41 1011.0
20260510002013 50 246 2.0 9.0 0.00 0.00 0.00 43 1010.9
20260510001531 50 325 3.0 9.0 0.00 0.00 0.00 41 1010.8
20260510001011 51 331 2.0 8.0 0.00 0.00 0.00 41 1010.7
20260510000514 51 279 1.0 8.0 0.00 0.00 0.00 42 1010.7
20260510000036 51 273 2.0 13.0 0.00 0.00 0.00 42 1010.5
20260509235509 51 0 2.0 13.0 0.00 0.00 0.00 43 1010.4
20260509235012 51 343 4.0 12.0 0.00 0.00 0.00 40 1010.3
20260509234539 52 302 3.0 12.0 0.00 0.00 0.00 42 1010.3
20260509234014 51 316 4.0 12.0 0.00 0.00 0.00 39 1010.4
20260509233511 51 326 2.0 8.0 0.00 0.00 0.00 40 1010.3
20260509233030 51 323 3.0 8.0 0.00 0.00 0.00 40 1010.3
20260509232511 51 327 2.0 9.0 0.00 0.00 0.00 40 1010.2
20260509232017 51 268 2.0 9.0 0.00 0.00 0.00 42 1010.2
20260509231533 51 0 1.0 5.0 0.00 0.00 0.00 45 1010.2
20260509231010 50 0 0.0 5.0 0.00 0.00 0.00 46 1010.2
20260509230515 50 332 1.0 5.0 0.00 0.00 0.00 43 1010.1
20260509230031 50 0 1.0 10.0 0.00 0.00 0.00 43 1010.0
20260509225512 50 267 3.0 10.0 0.00 0.00 0.00 44 1010.0
20260509225015 50 0 0.0 7.0 0.00 0.00 0.00 43 1009.9
20260509224544 50 0 1.0 6.0 0.00 0.00 0.00 45 1010.0
20260509224009 51 329 1.0 7.0 0.00 0.00 0.00 42 1009.9
20260509223515 51 334 2.0 10.0 0.00 0.00 0.00 41 1009.9
20260509223030 51 348 1.0 10.0 0.00 0.00 0.00 44 1009.8
20260509222509 51 327 4.0 11.0 0.00 0.00 0.00 40 1009.8
20260509222013 51 296 3.0 11.0 0.00 0.00 0.00 40 1009.7
20260509221531 51 315 3.0 11.0 0.00 0.00 0.00 41 1009.8
20260509221011 51 325 1.0 8.0 0.00 0.00 0.00 44 1009.7
20260509220515 51 329 3.0 11.0 0.00 0.00 0.00 40 1009.7
20260509220029 50 0 1.0 14.0 0.00 0.00 0.00 42 1009.7
20260509215512 50 5 3.0 14.0 0.00 0.00 0.00 41 1009.7
20260509215015 50 306 3.0 14.0 0.00 0.00 0.00 41 1009.7
20260509214535 51 313 4.0 11.0 0.00 0.00 0.00 40 1009.6
20260509214012 51 257 2.0 8.0 0.00 0.00 0.00 39 1009.6
20260509213512 51 323 1.0 9.0 0.00 0.00 0.00 41 1009.6
20260509213030 51 295 2.0 11.0 0.00 0.00 0.00 43 1009.5
20260509212511 51 32 2.0 12.0 0.00 0.00 0.00 41 1009.5
20260509212018 51 43 3.0 12.0 0.00 0.00 0.00 40 1009.4
20260509211529 51 5 2.0 8.0 0.00 0.00 0.00 44 1009.5
20260509211010 51 319 3.0 9.0 0.00 0.00 0.00 41 1009.4
20260509210514 51 309 4.0 9.0 0.00 0.00 0.00 42 1009.5
20260509210031 51 67 3.0 12.0 0.00 0.00 0.00 41 1009.3
20260509205510 51 290 5.0 14.0 0.00 0.00 0.00 41 1009.3
20260509205011 51 294 5.0 17.0 0.00 0.00 0.00 40 1009.3
20260509204529 51 320 5.0 17.0 0.00 0.00 0.00 42 1009.2
20260509204012 51 0 2.0 11.0 0.00 0.00 0.00 42 1009.2
20260509203515 51 0 4.0 11.0 0.00 0.00 0.00 41 1009.2
20260509203035 52 17 2.0 10.0 0.00 0.00 0.00 41 1009.0
20260509202510 52 314 2.0 12.0 0.00 0.00 0.00 43 1009.1
20260509202016 52 313 3.0 12.0 0.00 0.00 0.00 42 1009.1
20260509201529 52 15 5.0 11.0 0.00 0.00 0.00 41 1009.0
20260509201011 51 240 2.0 14.0 0.00 0.00 0.00 43 1008.8
20260509200512 50 298 4.0 14.0 0.00 0.00 0.00 44 1009.0
20260509200030 51 293 5.0 14.0 0.00 0.00 0.00 42 1008.9
20260509195516 51 317 0.0 13.0 0.00 0.00 0.00 45 1008.7
20260509195013 51 313 5.0 13.0 0.00 0.00 0.00 40 1008.8
20260509194533 51 293 4.0 12.0 0.00 0.00 0.00 41 1008.8
20260509194010 51 316 3.0 11.0 0.00 0.00 0.00 43 1008.8
20260509193514 52 330 4.0 16.0 0.00 0.00 0.00 42 1008.6
20260509193032 52 32 5.0 16.0 0.00 0.00 0.00 42 1008.5
20260509192511 51 318 6.0 16.0 0.00 0.00 0.00 41 1008.5
20260509192013 52 258 2.0 9.0 0.00 0.00 0.00 44 1008.4
20260509191530 53 301 3.0 13.0 0.00 0.00 0.00 44 1008.4
20260509191013 52 342 6.0 13.0 0.00 0.00 0.00 42 1008.3
20260509190510 52 254 4.0 13.0 0.00 0.00 0.00 43 1008.3
20260509190031 51 331 4.0 13.0 0.00 0.00 0.00 43 1008.3
20260509185509 52 293 4.0 13.0 0.00 0.00 0.00 43 1008.0
20260509185014 52 323 4.0 13.0 0.00 0.00 0.00 42 1007.9
20260509184542 52 199 2.0 10.0 0.00 0.00 0.00 44 1007.9
20260509184010 51 323 3.0 10.0 0.00 0.00 0.00 47 1007.9
20260509183514 52 302 2.0 11.0 0.00 0.00 0.00 44 1007.9
20260509183029 52 284 3.0 11.0 0.00 0.00 0.00 44 1007.7
20260509182510 52 319 4.0 12.0 0.00 0.00 0.00 45 1007.6
20260509182015 51 340 3.0 12.0 0.00 0.00 0.00 46 1007.7
20260509181529 51 288 3.0 11.0 0.00 0.00 0.00 44 1007.5
20260509181011 52 283 5.0 11.0 0.00 0.00 0.00 43 1007.6
20260509180515 53 282 4.0 10.0 0.00 0.00 0.00 43 1007.4
20260509180053 53 284 3.0 10.0 0.00 0.00 0.00 44 1007.3
20260509175511 51 242 2.0 11.0 0.00 0.00 0.00 49 1007.3
20260509175014 51 273 4.0 11.0 0.00 0.00 0.00 44 1007.2
20260509174532 52 339 4.0 10.0 0.00 0.00 0.00 44 1007.2
20260509174010 52 312 1.0 10.0 0.00 0.00 0.00 45 1007.1
20260509173513 52 313 1.0 11.0 0.00 0.00 0.00 46 1007.1
20260509173040 53 271 3.0 11.0 0.00 0.00 0.00 44 1006.9
20260509172515 53 0 2.0 10.0 0.00 0.00 0.00 43 1007.0
20260509172011 52 254 3.0 11.0 0.00 0.00 0.00 45 1006.9
20260509171529 52 307 2.0 11.0 0.00 0.00 0.00 46 1006.7
20260509171011 52 309 3.0 11.0 0.00 0.00 0.00 44 1006.7
20260509170512 53 303 3.0 13.0 0.00 0.00 0.00 42 1006.7
20260509170045 54 265 4.0 13.0 0.00 0.00 0.00 42 1006.6
20260509165513 54 331 4.0 13.0 0.00 0.00 0.00 45 1006.5
20260509165013 53 312 2.0 10.0 0.00 0.00 0.00 40 1006.6
20260509164531 53 286 2.0 20.0 0.00 0.00 0.00 45 1006.4